OYJAC EDDG-EKYT

Flight info

Callsign OYJAC
Flight time 1h 25m
Altitude 28000
Route OSNAD1E OSNAD M170 BASUM DCT DOSUR DCT SIVSU DCT BEBUL DCT ERGAT DCT AAL
Aircraft P46T/L-BDGRYZ/HV2

Departure

Time 2026-05-04 01:30
Airport Münster Osnabrück Airport (EDDG)

Arrival

Time 2026-05-04 02:55
Airport Aalborg Airport (EKYT)
Time Latitude Longitude Altitude Speed Heading
2026-05-04 01:08 52.13197 7.68696 162 ft 0 kts 341°
2026-05-04 01:25 52.13241 7.68672 162 ft 10 kts 347°
2026-05-04 01:25 52.13268 7.68740 162 ft 9 kts 72°
2026-05-04 01:26 52.13293 7.68853 167 ft 10 kts 54°
2026-05-04 01:26 52.13362 7.68865 162 ft 12 kts 32°
2026-05-04 01:26 52.13398 7.68999 162 ft 15 kts 70°
2026-05-04 01:26 52.13434 7.69170 162 ft 17 kts 71°
2026-05-04 01:27 52.13475 7.69364 162 ft 19 kts 71°
2026-05-04 01:27 52.13520 7.69575 162 ft 20 kts 71°
2026-05-04 01:27 52.13565 7.69789 162 ft 20 kts 70°
2026-05-04 01:27 52.13616 7.69993 162 ft 18 kts 45°
2026-05-04 01:28 52.13734 7.70006 162 ft 18 kts 333°
2026-05-04 01:28 52.13768 7.69908 162 ft 6 kts 250°
2026-05-04 01:28 52.13766 7.69901 162 ft 0 kts 250°
2026-05-04 01:29 52.13766 7.69900 162 ft 2 kts 250°
2026-05-04 01:29 52.13736 7.69760 163 ft 39 kts 251°
2026-05-04 01:29 52.13574 7.69005 181 ft 96 kts 251°
2026-05-04 01:29 52.13349 7.67890 509 ft 111 kts 252°
2026-05-04 01:30 52.13103 7.66634 997 ft 123 kts 252°
2026-05-04 01:30 52.12816 7.65238 1452 ft 132 kts 250°
2026-05-04 01:30 52.12490 7.63782 1884 ft 139 kts 251°
2026-05-04 01:30 52.12162 7.62298 2383 ft 140 kts 250°
2026-05-04 01:31 52.11831 7.60804 2874 ft 141 kts 250°
2026-05-04 01:31 52.11498 7.59296 3362 ft 142 kts 250°
2026-05-04 01:31 52.11160 7.57767 3846 ft 144 kts 250°
2026-05-04 01:31 52.10820 7.56230 4323 ft 145 kts 250°
2026-05-04 01:32 52.10477 7.54681 4785 ft 146 kts 250°
2026-05-04 01:32 52.10031 7.53195 5238 ft 148 kts 234°
2026-05-04 01:32 52.09287 7.52037 5721 ft 150 kts 217°
2026-05-04 01:32 52.08324 7.51349 6204 ft 154 kts 199°
2026-05-04 01:33 52.07237 7.51256 6652 ft 160 kts 179°
2026-05-04 01:33 52.06126 7.51502 7061 ft 161 kts 179°
2026-05-04 01:33 52.05031 7.52026 7475 ft 169 kts 159°
2026-05-04 01:33 52.04079 7.53212 7885 ft 178 kts 139°
2026-05-04 01:34 52.03427 7.54935 8294 ft 186 kts 118°
2026-05-04 01:34 52.02974 7.56918 8662 ft 191 kts 106°
2026-05-04 01:34 52.02973 7.59096 9081 ft 197 kts 81°
2026-05-04 01:34 52.03432 7.61203 9503 ft 199 kts 68°
2026-05-04 01:35 52.03959 7.63299 9908 ft 202 kts 69°
2026-05-04 01:35 52.04485 7.65421 10275 ft 203 kts 69°
2026-05-04 01:35 52.05017 7.67550 10661 ft 204 kts 69°
2026-05-04 01:35 52.05552 7.69694 11040 ft 205 kts 69°
2026-05-04 01:36 52.06086 7.71841 11418 ft 206 kts 69°
2026-05-04 01:36 52.06623 7.74001 11793 ft 207 kts 69°
2026-05-04 01:36 52.07162 7.76168 12168 ft 207 kts 69°
2026-05-04 01:36 52.07703 7.78349 12539 ft 208 kts 69°
2026-05-04 01:37 52.08247 7.80539 12907 ft 209 kts 69°
2026-05-04 01:37 52.08793 7.82742 13280 ft 210 kts 70°
2026-05-04 01:37 52.09339 7.84950 13648 ft 211 kts 70°
2026-05-04 01:37 52.09888 7.87168 13974 ft 212 kts 70°
2026-05-04 01:38 52.10439 7.89397 14280 ft 213 kts 70°
2026-05-04 01:38 52.10993 7.91643 14591 ft 214 kts 70°
2026-05-04 01:38 52.11549 7.93901 14900 ft 216 kts 70°
2026-05-04 01:38 52.12109 7.96172 15223 ft 217 kts 70°
2026-05-04 01:39 52.12673 7.98462 15557 ft 218 kts 70°
2026-05-04 01:39 52.13232 8.00736 15887 ft 220 kts 70°
2026-05-04 01:39 52.13800 8.03050 16219 ft 221 kts 70°
2026-05-04 01:39 52.14373 8.05387 16550 ft 222 kts 70°
2026-05-04 01:40 52.14948 8.07735 16880 ft 224 kts 70°
2026-05-04 01:40 52.15526 8.10095 17214 ft 225 kts 70°
2026-05-04 01:40 52.16110 8.12482 17539 ft 227 kts 70°
2026-05-04 01:40 52.16695 8.14879 17858 ft 228 kts 70°
2026-05-04 01:41 52.17283 8.17289 18172 ft 230 kts 70°
2026-05-04 01:41 52.17873 8.19712 18444 ft 231 kts 70°
2026-05-04 01:41 52.18468 8.22154 18718 ft 233 kts 70°
2026-05-04 01:41 52.19065 8.24611 18981 ft 234 kts 70°
2026-05-04 01:42 52.19729 8.27043 19237 ft 237 kts 59°
2026-05-04 01:42 52.20819 8.29056 19500 ft 238 kts 37°
2026-05-04 01:42 52.22219 8.30452 19762 ft 236 kts 23°
2026-05-04 01:42 52.23676 8.31705 20040 ft 237 kts 24°
2026-05-04 01:43 52.25137 8.32979 20320 ft 238 kts 24°
2026-05-04 01:43 52.26606 8.34258 20579 ft 240 kts 23°
2026-05-04 01:43 52.28084 8.35541 20834 ft 241 kts 23°
2026-05-04 01:43 52.29571 8.36834 21095 ft 243 kts 23°
2026-05-04 01:44 52.31065 8.38135 21330 ft 244 kts 23°
2026-05-04 01:44 52.32567 8.39445 21590 ft 245 kts 23°
2026-05-04 01:44 52.34077 8.40762 21838 ft 247 kts 23°
2026-05-04 01:44 52.35595 8.42085 22091 ft 248 kts 23°
2026-05-04 01:45 52.37103 8.43403 22337 ft 249 kts 23°
2026-05-04 01:45 52.38635 8.44745 22608 ft 251 kts 23°
2026-05-04 01:45 52.41727 8.47456 23176 ft 252 kts 22°
2026-05-04 01:46 52.43278 8.48816 23451 ft 253 kts 22°
2026-05-04 01:46 52.44836 8.50183 23685 ft 255 kts 22°
2026-05-04 01:46 52.46401 8.51558 23918 ft 256 kts 22°
2026-05-04 01:46 52.47971 8.52939 24147 ft 257 kts 22°
2026-05-04 01:47 52.49547 8.54326 24368 ft 258 kts 22°
2026-05-04 01:47 52.51131 8.55721 24586 ft 259 kts 22°
2026-05-04 01:47 52.52721 8.57124 24804 ft 260 kts 22°
2026-05-04 01:47 52.54316 8.58531 25018 ft 261 kts 22°
2026-05-04 01:48 52.55919 8.59946 25233 ft 262 kts 22°
2026-05-04 01:48 52.57528 8.61369 25447 ft 263 kts 22°
2026-05-04 01:48 52.59143 8.62796 25668 ft 264 kts 22°
2026-05-04 01:48 52.60767 8.64232 25884 ft 265 kts 22°
2026-05-04 01:49 52.62373 8.65655 26092 ft 266 kts 22°
2026-05-04 01:49 52.64008 8.67104 26303 ft 267 kts 21°
2026-05-04 01:49 52.65648 8.68558 26508 ft 268 kts 21°
2026-05-04 01:49 52.67297 8.70022 26717 ft 270 kts 21°
2026-05-04 01:50 52.68953 8.71493 26957 ft 271 kts 21°
2026-05-04 01:50 52.70620 8.72975 27130 ft 273 kts 22°
2026-05-04 01:50 52.72299 8.74470 27329 ft 275 kts 21°
2026-05-04 01:50 52.73980 8.75968 27532 ft 276 kts 21°
2026-05-04 01:51 52.75673 8.77478 27724 ft 277 kts 21°
2026-05-04 01:51 52.77417 8.78739 27899 ft 270 kts
2026-05-04 01:51 52.79257 8.79238 27925 ft 268 kts 355°
2026-05-04 01:51 52.81137 8.79555 27937 ft 275 kts 356°
2026-05-04 01:52 52.83055 8.79920 27935 ft 279 kts 356°
2026-05-04 01:52 52.84985 8.80289 27936 ft 281 kts 356°
2026-05-04 01:52 52.86933 8.80652 27938 ft 282 kts 356°
2026-05-04 01:52 52.88884 8.81012 27939 ft 283 kts 356°
2026-05-04 01:53 52.90844 8.81376 27941 ft 284 kts 356°
2026-05-04 01:53 52.92804 8.81743 27961 ft 284 kts 357°
2026-05-04 01:53 52.94775 8.82108 27949 ft 285 kts 357°
2026-05-04 01:53 52.96746 8.82478 27946 ft 285 kts 357°
2026-05-04 01:54 52.98716 8.82846 27946 ft 285 kts 357°
2026-05-04 01:54 53.00664 8.83210 27946 ft 285 kts 357°
2026-05-04 01:54 53.02637 8.83578 27946 ft 285 kts 357°
2026-05-04 01:54 53.04608 8.83948 27946 ft 285 kts 357°
2026-05-04 01:55 53.06581 8.84317 27945 ft 285 kts 357°
2026-05-04 01:55 53.08553 8.84687 27945 ft 285 kts 357°
2026-05-04 01:55 53.10525 8.85057 27945 ft 285 kts 357°
2026-05-04 01:55 53.12497 8.85428 27945 ft 285 kts 357°
2026-05-04 01:56 53.14468 8.85799 27944 ft 285 kts 357°
2026-05-04 01:56 53.16441 8.86170 27942 ft 285 kts 357°
2026-05-04 01:56 53.18419 8.86543 27939 ft 285 kts 357°
2026-05-04 01:56 53.20394 8.86915 27937 ft 285 kts 357°
2026-05-04 01:57 53.22343 8.87283 27934 ft 285 kts 357°
2026-05-04 01:57 53.24314 8.87656 27932 ft 285 kts 357°
2026-05-04 01:57 53.26285 8.88029 27929 ft 285 kts 357°
2026-05-04 01:57 53.28257 8.88402 27926 ft 285 kts 357°
2026-05-04 01:58 53.30231 8.88776 27924 ft 285 kts 357°
2026-05-04 01:58 53.32206 8.89150 27922 ft 285 kts 357°
2026-05-04 01:58 53.34181 8.89525 27918 ft 285 kts 357°
2026-05-04 01:58 53.36152 8.89900 27916 ft 285 kts 357°
2026-05-04 01:59 53.38127 8.90275 27914 ft 285 kts 356°
2026-05-04 01:59 53.40100 8.90651 27911 ft 285 kts 356°
2026-05-04 01:59 53.41409 8.90900 27916 ft 286 kts 358°
2026-05-04 01:59 53.43386 8.91277 27909 ft 286 kts 358°
2026-05-04 02:00 53.45364 8.91655 27909 ft 286 kts 357°
2026-05-04 02:00 53.48010 8.92161 27909 ft 286 kts 358°
2026-05-04 02:00 53.49318 8.92411 27909 ft 286 kts 357°
2026-05-04 02:00 53.51295 8.92788 27909 ft 286 kts 357°
2026-05-04 02:01 53.53271 8.93167 27911 ft 285 kts 358°
2026-05-04 02:01 53.55243 8.93546 27911 ft 285 kts 358°
2026-05-04 02:01 53.57216 8.93924 27912 ft 285 kts 358°
2026-05-04 02:01 53.59188 8.94303 27910 ft 285 kts 358°
2026-05-04 02:02 53.61160 8.94682 27911 ft 285 kts 358°
2026-05-04 02:02 53.63133 8.95062 27911 ft 285 kts 358°
2026-05-04 02:02 53.65080 8.95437 27912 ft 285 kts 358°
2026-05-04 02:02 53.67053 8.95816 27911 ft 286 kts 358°
2026-05-04 02:03 53.69031 8.96199 27911 ft 286 kts 358°
2026-05-04 02:03 53.71009 8.96582 27912 ft 286 kts 358°
2026-05-04 02:03 53.72986 8.96964 27911 ft 286 kts 358°
2026-05-04 02:03 53.74962 8.97346 27911 ft 286 kts 358°
2026-05-04 02:04 53.76935 8.97728 27912 ft 286 kts 358°
2026-05-04 02:04 53.78912 8.98112 27911 ft 286 kts 358°
2026-05-04 02:04 53.80886 8.98495 27911 ft 286 kts 358°
2026-05-04 02:04 53.82862 8.98879 27910 ft 286 kts 358°
2026-05-04 02:05 53.84838 8.99263 27907 ft 286 kts 358°
2026-05-04 02:05 53.86812 8.99647 27907 ft 285 kts 358°
2026-05-04 02:05 53.88786 9.00032 27906 ft 285 kts 358°
2026-05-04 02:05 53.90760 9.00416 27905 ft 285 kts 358°
2026-05-04 02:06 53.92736 9.00802 27903 ft 286 kts 359°
2026-05-04 02:06 53.94711 9.01189 27903 ft 285 kts 359°
2026-05-04 02:06 53.96661 9.01570 27902 ft 285 kts 359°
2026-05-04 02:06 53.98633 9.01956 27900 ft 285 kts 359°
2026-05-04 02:07 54.00606 9.02342 27903 ft 285 kts 359°
2026-05-04 02:07 54.02578 9.02729 27897 ft 285 kts 359°
2026-05-04 02:07 54.04549 9.03116 27895 ft 285 kts 359°
2026-05-04 02:07 54.06521 9.03504 27895 ft 285 kts 359°
2026-05-04 02:08 54.08493 9.03891 27898 ft 285 kts 359°
2026-05-04 02:08 54.10461 9.04279 27898 ft 285 kts 359°
2026-05-04 02:08 54.12430 9.04667 27895 ft 285 kts 359°
2026-05-04 02:08 54.14397 9.05055 27895 ft 285 kts 359°
2026-05-04 02:09 54.16365 9.05444 27910 ft 285 kts 359°
2026-05-04 02:09 54.18340 9.05834 27899 ft 285 kts 359°
2026-05-04 02:09 54.20285 9.06218 27899 ft 285 kts 359°
2026-05-04 02:09 54.22254 9.06609 27893 ft 285 kts 359°
2026-05-04 02:10 54.24219 9.06999 27896 ft 285 kts 359°
2026-05-04 02:10 54.26188 9.07389 27896 ft 284 kts 359°
2026-05-04 02:10 54.28154 9.07779 27895 ft 284 kts 359°
2026-05-04 02:10 54.30116 9.08169 27895 ft 284 kts 359°
2026-05-04 02:11 54.32081 9.08560 27892 ft 284 kts 359°
2026-05-04 02:11 54.34045 9.08951 27892 ft 284 kts 359°
2026-05-04 02:11 54.36014 9.09343 27889 ft 285 kts 359°
2026-05-04 02:11 54.37991 9.09738 27890 ft 285 kts 359°
2026-05-04 02:12 54.39965 9.10132 27893 ft 285 kts 359°
2026-05-04 02:12 54.41937 9.10527 27886 ft 286 kts 359°
2026-05-04 02:12 54.43914 9.10922 27887 ft 286 kts 359°
2026-05-04 02:12 54.45887 9.11318 27887 ft 286 kts 359°
2026-05-04 02:13 54.47859 9.11714 27887 ft 285 kts 359°
2026-05-04 02:13 54.49834 9.12110 27887 ft 285 kts 359°
2026-05-04 02:13 54.51804 9.12506 27882 ft 285 kts 359°
2026-05-04 02:13 54.53778 9.12902 27882 ft 285 kts 359°
2026-05-04 02:14 54.55751 9.13300 27884 ft 285 kts 359°
2026-05-04 02:14 54.57720 9.13696 27884 ft 285 kts 359°
2026-05-04 02:14 54.59669 9.14089 27884 ft 285 kts 359°
2026-05-04 02:14 54.61641 9.14487 27876 ft 285 kts 359°
2026-05-04 02:15 54.63613 9.14886 27880 ft 285 kts 359°
2026-05-04 02:15 54.65589 9.15286 27880 ft 285 kts 359°
2026-05-04 02:15 54.67568 9.15686 27878 ft 286 kts 359°
2026-05-04 02:15 54.69546 9.16087 27879 ft 286 kts 359°
2026-05-04 02:16 54.71527 9.16489 27873 ft 286 kts 359°
2026-05-04 02:16 54.73506 9.16892 27874 ft 287 kts 359°
2026-05-04 02:16 54.75487 9.17294 27874 ft 287 kts 359°
2026-05-04 02:16 54.77468 9.17697 27873 ft 287 kts 359°
2026-05-04 02:17 54.79448 9.18100 27874 ft 287 kts 359°
2026-05-04 02:17 54.81433 9.18505 27874 ft 287 kts 359°
2026-05-04 02:17 54.83389 9.18904 27868 ft 287 kts 359°
2026-05-04 02:17 54.85367 9.19308 27868 ft 286 kts 359°
2026-05-04 02:18 54.87343 9.19612 27867 ft 284 kts 357°
2026-05-04 02:18 54.89320 9.19899 27867 ft 285 kts 358°
2026-05-04 02:18 54.91295 9.20203 27866 ft 285 kts 358°
2026-05-04 02:18 54.93275 9.20496 27864 ft 286 kts 357°
2026-05-04 02:19 54.95257 9.20783 27864 ft 286 kts 357°
2026-05-04 02:19 54.97243 9.21073 27864 ft 286 kts 357°
2026-05-04 02:19 54.99232 9.21365 27864 ft 286 kts 357°
2026-05-04 02:19 55.01221 9.21658 27864 ft 286 kts 357°
2026-05-04 02:20 55.03206 9.21950 27863 ft 286 kts 357°
2026-05-04 02:20 55.05170 9.22239 27863 ft 286 kts 357°
2026-05-04 02:20 55.07155 9.22531 27865 ft 286 kts 357°
2026-05-04 02:20 55.09142 9.22824 27864 ft 286 kts 357°
2026-05-04 02:21 55.11130 9.23118 27861 ft 286 kts 357°
2026-05-04 02:21 55.13116 9.23411 27855 ft 286 kts 357°
2026-05-04 02:21 55.15100 9.23704 27861 ft 286 kts 357°
2026-05-04 02:21 55.17086 9.23999 27861 ft 286 kts 357°
2026-05-04 02:22 55.19076 9.24293 27862 ft 287 kts 358°
2026-05-04 02:22 55.21072 9.24589 27863 ft 287 kts 358°
2026-05-04 02:22 55.23061 9.24885 27863 ft 287 kts 358°
2026-05-04 02:22 55.25053 9.25181 27863 ft 287 kts 358°
2026-05-04 02:23 55.27044 9.25477 27863 ft 287 kts 358°
2026-05-04 02:23 55.29033 9.25773 27857 ft 287 kts 358°
2026-05-04 02:23 55.31020 9.26070 27863 ft 287 kts 358°
2026-05-04 02:23 55.33011 9.26367 27863 ft 287 kts 358°
2026-05-04 02:24 55.34999 9.26663 27859 ft 287 kts 358°
2026-05-04 02:24 55.36989 9.26962 27863 ft 287 kts 358°
2026-05-04 02:24 55.38951 9.27256 27862 ft 287 kts 358°
2026-05-04 02:24 55.40943 9.27554 27863 ft 287 kts 358°
2026-05-04 02:25 55.42931 9.27852 27865 ft 287 kts 358°
2026-05-04 02:25 55.44921 9.28150 27862 ft 287 kts 358°
2026-05-04 02:25 55.46913 9.28443 27863 ft 286 kts 356°
2026-05-04 02:25 55.48880 9.28368 27861 ft 281 kts 348°
2026-05-04 02:26 55.50834 9.28178 27862 ft 282 kts 349°
2026-05-04 02:26 55.52793 9.28011 27863 ft 282 kts 349°
2026-05-04 02:26 55.54755 9.27851 27864 ft 282 kts 349°
2026-05-04 02:26 55.56719 9.27685 27864 ft 282 kts 349°
2026-05-04 02:27 55.58679 9.27516 27864 ft 282 kts 349°
2026-05-04 02:27 55.60642 9.27347 27864 ft 282 kts 349°
2026-05-04 02:27 55.62606 9.27180 27865 ft 282 kts 349°
2026-05-04 02:27 55.64565 9.27014 27864 ft 282 kts 349°
2026-05-04 02:28 55.66505 9.26847 27865 ft 282 kts 349°
2026-05-04 02:28 55.68494 9.26676 27865 ft 283 kts 349°
2026-05-04 02:28 55.70458 9.26506 27864 ft 283 kts 349°
2026-05-04 02:28 55.72422 9.26339 27864 ft 282 kts 349°
2026-05-04 02:29 55.74359 9.26174 27864 ft 282 kts 349°
2026-05-04 02:29 55.76320 9.26005 27864 ft 282 kts 349°
2026-05-04 02:29 55.78281 9.25835 27864 ft 282 kts 349°
2026-05-04 02:29 55.80240 9.25666 27864 ft 282 kts 349°
2026-05-04 02:30 55.82215 9.25727 27857 ft 287 kts 359°
2026-05-04 02:30 55.84203 9.26147 27858 ft 288 kts 360°
2026-05-04 02:30 55.86195 9.26558 27859 ft 288 kts 359°
2026-05-04 02:30 55.88187 9.26945 27858 ft 288 kts 359°
2026-05-04 02:31 55.90177 9.27334 27862 ft 288 kts 359°
2026-05-04 02:31 55.92172 9.27731 27862 ft 288 kts 359°
2026-05-04 02:31 55.94164 9.28128 27863 ft 288 kts 359°
2026-05-04 02:31 55.96159 9.28525 27873 ft 289 kts 359°
2026-05-04 02:32 55.98127 9.28915 27865 ft 289 kts 359°
2026-05-04 02:32 56.00125 9.29319 27866 ft 289 kts 359°
2026-05-04 02:32 56.02120 9.29719 27867 ft 289 kts 359°
2026-05-04 02:32 56.04133 9.30117 27735 ft 293 kts 359°
2026-05-04 02:33 56.06181 9.30637 27420 ft 305 kts
2026-05-04 02:33 56.08232 9.31839 27061 ft 314 kts 15°
2026-05-04 02:33 56.10291 9.33239 26703 ft 318 kts 16°
2026-05-04 02:33 56.12369 9.34604 26355 ft 319 kts 15°
2026-05-04 02:34 56.14465 9.35936 25968 ft 320 kts 15°
2026-05-04 02:34 56.16560 9.37283 25592 ft 317 kts 15°
2026-05-04 02:34 56.18615 9.38618 25241 ft 313 kts 15°
2026-05-04 02:34 56.20658 9.39941 24849 ft 310 kts 15°
2026-05-04 02:35 56.22680 9.41250 24481 ft 308 kts 15°
2026-05-04 02:35 56.24687 9.42552 24095 ft 306 kts 15°
2026-05-04 02:35 56.26682 9.43848 23718 ft 304 kts 15°
2026-05-04 02:35 56.28663 9.45137 23327 ft 302 kts 15°
2026-05-04 02:36 56.30610 9.46402 22890 ft 301 kts 15°
2026-05-04 02:36 56.32577 9.47805 22446 ft 300 kts 21°
2026-05-04 02:36 56.34393 9.49562 22022 ft 300 kts 26°
2026-05-04 02:36 56.36199 9.51444 21600 ft 298 kts 26°
2026-05-04 02:37 56.38035 9.53154 21177 ft 294 kts 21°
2026-05-04 02:37 56.39877 9.54692 20764 ft 290 kts 20°
2026-05-04 02:37 56.41693 9.56249 20356 ft 287 kts 21°
2026-05-04 02:37 56.43475 9.57844 19956 ft 285 kts 22°
2026-05-04 02:38 56.45249 9.59429 19563 ft 283 kts 21°
2026-05-04 02:38 56.47013 9.60988 19174 ft 281 kts 21°
2026-05-04 02:38 56.48767 9.62535 18804 ft 279 kts 21°
2026-05-04 02:38 56.50505 9.64077 18425 ft 278 kts 21°
2026-05-04 02:39 56.52235 9.65614 18036 ft 276 kts 21°
2026-05-04 02:39 56.53954 9.67143 17604 ft 273 kts 21°
2026-05-04 02:39 56.55645 9.68649 17172 ft 269 kts 21°
2026-05-04 02:39 56.57314 9.70135 16753 ft 266 kts 21°
2026-05-04 02:40 56.58961 9.71603 16339 ft 262 kts 21°
2026-05-04 02:40 56.60589 9.73055 15931 ft 259 kts 21°
2026-05-04 02:40 56.62201 9.74494 15523 ft 257 kts 21°
2026-05-04 02:40 56.63793 9.75918 15117 ft 253 kts 21°
2026-05-04 02:41 56.65337 9.77307 14738 ft 249 kts 21°
2026-05-04 02:41 56.66902 9.78711 14338 ft 246 kts 21°
2026-05-04 02:41 56.68427 9.80079 13953 ft 243 kts 21°
2026-05-04 02:41 56.69914 9.81415 13567 ft 240 kts 21°
2026-05-04 02:42 56.71338 9.82993 13134 ft 241 kts 32°
2026-05-04 02:42 56.72663 9.84847 12725 ft 239 kts 34°
2026-05-04 02:42 56.73972 9.86705 12308 ft 237 kts 34°
2026-05-04 02:42 56.75267 9.88542 11896 ft 235 kts 34°
2026-05-04 02:43 56.76555 9.90375 11491 ft 234 kts 34°
2026-05-04 02:43 56.77833 9.92199 11083 ft 233 kts 34°
2026-05-04 02:43 56.79103 9.94015 10687 ft 231 kts 34°
2026-05-04 02:43 56.80354 9.95807 10296 ft 227 kts 34°
2026-05-04 02:44 56.81581 9.97576 9914 ft 223 kts 34°
2026-05-04 02:44 56.82799 9.99341 9502 ft 224 kts 34°
2026-05-04 02:44 56.84017 10.01107 9076 ft 223 kts 34°
2026-05-04 02:44 56.85235 10.02863 8656 ft 223 kts 34°
2026-05-04 02:45 56.86453 10.04612 8246 ft 222 kts 34°
2026-05-04 02:45 56.87668 10.06361 7830 ft 222 kts 34°
2026-05-04 02:45 56.88880 10.08095 7427 ft 221 kts 34°
2026-05-04 02:45 56.90085 10.09815 7029 ft 218 kts 34°
2026-05-04 02:46 56.91275 10.11519 6626 ft 216 kts 34°
2026-05-04 02:46 56.92454 10.13211 6250 ft 214 kts 34°
2026-05-04 02:46 56.93623 10.14883 5827 ft 212 kts 34°
2026-05-04 02:46 56.94770 10.16518 5429 ft 211 kts 34°
2026-05-04 02:47 56.95927 10.18168 5024 ft 210 kts 34°
2026-05-04 02:47 56.97080 10.19800 4630 ft 208 kts 34°
2026-05-04 02:47 56.98224 10.21410 4211 ft 207 kts 34°
2026-05-04 02:47 56.99431 10.22743 3786 ft 200 kts 12°
2026-05-04 02:48 57.00766 10.22650 3364 ft 191 kts 335°
2026-05-04 02:48 57.01750 10.21140 2947 ft 184 kts 301°
2026-05-04 02:48 57.02351 10.19081 2545 ft 182 kts 294°
2026-05-04 02:48 57.02919 10.17027 2317 ft 173 kts 297°
2026-05-04 02:49 57.03364 10.15887 2429 ft 161 kts 309°
2026-05-04 02:49 57.04219 10.14581 2407 ft 161 kts 322°
2026-05-04 02:49 57.05516 10.13209 2288 ft 164 kts 327°
2026-05-04 02:49 57.06535 10.12237 2180 ft 165 kts 329°
2026-05-04 02:50 57.07584 10.11375 2040 ft 165 kts 332°
2026-05-04 02:50 57.08631 10.10559 1964 ft 159 kts 332°
2026-05-04 02:50 57.09304 10.10015 1947 ft 154 kts 330°
2026-05-04 02:50 57.10268 10.09197 1891 ft 152 kts 330°
2026-05-04 02:51 57.11178 10.08404 1852 ft 135 kts 321°
2026-05-04 02:51 57.11496 10.07122 1975 ft 111 kts 261°
2026-05-04 02:51 57.11208 10.05742 1803 ft 119 kts 252°
2026-05-04 02:51 57.10938 10.04291 1679 ft 119 kts 255°
2026-05-04 02:52 57.10689 10.02839 1541 ft 119 kts 257°
2026-05-04 02:52 57.10519 10.01423 1503 ft 106 kts 263°
2026-05-04 02:52 57.10417 10.00094 1491 ft 103 kts 267°
2026-05-04 02:52 57.10370 9.98801 1502 ft 101 kts 268°
2026-05-04 02:53 57.10293 9.97504 1432 ft 104 kts 265°
2026-05-04 02:53 57.10192 9.96131 1225 ft 112 kts 265°
2026-05-04 02:53 57.10124 9.94736 1080 ft 112 kts 266°
2026-05-04 02:53 57.10052 9.93338 905 ft 109 kts 266°
2026-05-04 02:54 57.09966 9.91962 726 ft 101 kts 263°
2026-05-04 02:54 57.09866 9.90789 497 ft 91 kts 262°
2026-05-04 02:54 57.09787 9.89641 318 ft 90 kts 263°
2026-05-04 02:54 57.09716 9.88500 197 ft 89 kts 262°
2026-05-04 02:55 57.09579 9.86508 14 ft 50 kts 263°
2026-05-04 02:55 57.09548 9.86040 14 ft 26 kts 263°
2026-05-04 02:55 57.09534 9.85806 14 ft 14 kts 264°
2026-05-04 02:56 57.09509 9.85670 14 ft 11 kts 192°
2026-05-04 02:56 57.09440 9.85747 14 ft 13 kts 143°
2026-05-04 02:56 57.09360 9.85861 14 ft 16 kts 141°
2026-05-04 02:56 57.09271 9.85989 14 ft 17 kts 143°
2026-05-04 02:57 57.09170 9.86129 14 ft 19 kts 144°
2026-05-04 02:57 57.09064 9.86275 14 ft 19 kts 144°
2026-05-04 02:57 57.08962 9.86421 14 ft 18 kts 141°
2026-05-04 02:57 57.08862 9.86565 14 ft 18 kts 142°
2026-05-04 02:58 57.08764 9.86708 14 ft 18 kts 141°
2026-05-04 02:58 57.08681 9.86838 14 ft 13 kts 137°
2026-05-04 02:58 57.08631 9.86844 14 ft 8 kts 230°
2026-05-04 02:58 57.08604 9.86765 14 ft 7 kts 238°
2026-05-04 02:59 57.08573 9.86746 14 ft 5 kts 141°
2026-05-04 02:59 57.08548 9.86782 14 ft 0 kts 141°